星链-4150 (STARLINK-4150 )

导读

STARLINK-4150是美国太空探索技术公司星链星座中的一颗卫星,于2022年7月17日发射入轨。作为星链互联网卫星星座的组成部分,它承担着为全球提供低延迟、高速宽带互联网服务的任务,运行于近地轨道,推动了星链全球覆盖网络的搭建,也是美国低轨卫星互联网布局的重要单元。

Basic Information
目录编号:
53134
目录名称:
STARLINK-4150
国际标识:
2022-083C
轨道中心:
EARTH
卫星名称:
星链-4150
卫星全名:
星链-4150 (STARLINK-4150 )
卫星状态:
在轨 (已飞行1518 天)
发射日期:
2022-07-17 UTC
国别 :
美国 (US)
星等 :
--
This satellite is enrolled in the Space Conjunction Data Service (SCDS) and the current flight risk assessment level is: High Risk
Orbit Information
数据来源 国际轨道数据
星历时间: 2026-09-12T11:37:20+0800
5小时前
查看轨道信息
半长轴: 6840.889km
偏心率: 0.0001387
轨道倾角: 53.162°
近地点辐角 89.490°
升交点赤经 44.641°
平近点角 270.626°
近地点: 461.803km
远地点: 463.701km
周期: 93.849分钟
每日圈数: 15.343839
Detailed Information
固有亮度:
5
最大亮度:
2.5
卫星平台:
Starlink v1.5
覆盖范围:
全球
运营商:
太空探索技术公司
运营商所在国:
美国
制造商(研发单位):
太空探索技术公司
制造商所在国:
美国
使用方式:
暂无
Satellite Introduction
星链(Starlink)计划是由太空探索技术公司(SpaceX)提出的一个巨型低轨卫星互联网星座项目,计划在2019年至2024年间在太空搭建由约1.2万颗卫星组成的“星链”网络,其中1584颗将部署在地球上空550千米处的近地轨道,并从2020年开始工作。该卫星仍在工作。
2D Orbit Map
3D Orbit Map
Orbit Altitude Analysis Chart
Orbit Inclination Analysis Chart
Orbit Comprehensive Analysis Chart
View Comprehensive Chart
Conjunction Data List
Event ID Objects TCA Miss Dist (km) Collision Risk Probability Collision Risk Index (CRI) Action
CDM_260913-203305-313406-468121
2026-09-13T
20:33:41+0000
0.540 km
远距离
1.06613E-4 高风险 0.76
CDM_260914-020105-313406-852621
2026-09-14T
02:01:36+0000
0.549 km
远距离
1.048482E-4 高风险 0.75
CDM_260913-155105-313406-852621
2026-09-13T
15:51:58+0000
0.727 km
远距离
4.672287E-5 中风险 0.68
CDM_260914-084005-313406-490621
2026-09-14T
08:40:32+0000
0.841 km
远距离
4.160957E-5 中风险 0.67
CDM_260914-034505-313406-477921
2026-09-14T
03:45:26+0000
0.732 km
远距离
3.587145E-5 中风险 0.66
CDM_260914-064305-313406-468121
2026-09-14T
06:43:20+0000
1.195 km
极远距离
8.495599E-6 低风险 0.54
CDM_260913-042105-313406-549621
2026-09-13T
04:21:19+0000
1.266 km
极远距离
7.545023E-6 低风险 0.53
CDM_260914-081705-313406-468121
2026-09-14T
08:17:08+0000
1.380 km
极远距离
5.225044E-6 低风险 0.49
CDM_260913-143005-313406-549621
2026-09-13T
14:30:58+0000
1.513 km
极远距离
4.188961E-6 低风险 0.47
CDM_260912-182203-679905-313423
TISAT 1 (36799)
2026-09-12T
18:22:25+0000
1.883 km
极远距离
3.349256E-6 低风险 0.45
Miss Distance Evolution Trend with All Objects
Collision Probability Evolution Trend with All Objects